| time (UTC) | temp C | wind direction | speed KPH | gust KPH | rain 1hr cm | rain 24hr cm | rain mn cm | humidity % | barometer mb |
| 20260906001511 | 26 | 238 | 0.0 | 8.0 | 0.00 | 0.00 | 0.00 | 23 | 1006.2 |
| 20260906000525 | 26 | 240 | 1.6 | 0.0 | 0.00 | 0.00 | 0.00 | 23 | 1006.3 |
| 20260905235515 | 27 | 229 | 4.8 | 16.1 | 0.00 | 0.00 | 0.00 | 23 | 1006.3 |
| 20260905234516 | 28 | 223 | 1.6 | 16.1 | 0.00 | 0.00 | 0.00 | 22 | 1006.1 |
| 20260905233516 | 28 | 0 | 1.6 | 3.2 | 0.00 | 0.00 | 0.00 | 22 | 1006.3 |
| 20260905232445 | 28 | 242 | 0.0 | 12.9 | 0.00 | 0.00 | 0.00 | 22 | 1006.3 |
| 20260905231421 | 28 | 240 | 0.0 | 9.7 | 0.00 | 0.00 | 0.00 | 22 | 1006.3 |
| 20260905230446 | 27 | 247 | 1.6 | 4.8 | 0.00 | 0.00 | 0.00 | 21 | 1006.4 |
| 20260905224242 | 28 | 259 | 0.0 | 0.0 | 0.00 | 0.00 | 0.00 | 22 | 1006.3 |
| 20260905223247 | 28 | 0 | 6.4 | 0.0 | 0.00 | 0.00 | 0.00 | 22 | 1006.3 |
| 20260905222245 | 28 | 0 | 1.6 | 16.1 | 0.00 | 0.00 | 0.00 | 23 | 1006.4 |
| 20260905221307 | 28 | 257 | 4.8 | 24.1 | 0.00 | 0.00 | 0.00 | 24 | 1006.4 |
| 20260905220317 | 28 | 257 | 6.4 | 22.5 | 0.00 | 0.00 | 0.00 | 25 | 1006.6 |
| 20260905214205 | 28 | 256 | 0.0 | 0.0 | 0.00 | 0.00 | 0.00 | 26 | 1006.9 |
| 20260905213200 | 28 | 252 | 4.8 | 16.1 | 0.00 | 0.00 | 0.00 | 26 | 1007.0 |
| 20260905212221 | 28 | 192 | 4.8 | 19.3 | 0.00 | 0.00 | 0.00 | 27 | 1007.1 |
| 20260905211241 | 28 | 244 | 6.4 | 22.5 | 0.00 | 0.00 | 0.00 | 27 | 1007.3 |
| 20260905210259 | 28 | 244 | 1.6 | 22.5 | 0.00 | 0.00 | 0.00 | 28 | 1007.4 |
| 20260905205311 | 28 | 252 | 4.8 | 17.7 | 0.00 | 0.00 | 0.00 | 28 | 1007.5 |
| 20260905204255 | 27 | 342 | 6.4 | 3.2 | 0.00 | 0.00 | 0.00 | 29 | 1007.7 |
| 20260905203238 | 27 | 261 | 4.8 | 20.9 | 0.00 | 0.00 | 0.00 | 29 | 1007.7 |
| 20260905202231 | 26 | 16 | 1.6 | 19.3 | 0.00 | 0.00 | 0.00 | 31 | 1007.7 |
| 20260905201243 | 27 | 206 | 6.4 | 22.5 | 0.00 | 0.00 | 0.00 | 30 | 1007.9 |
| 20260905200213 | 27 | 0 | 0.0 | 12.9 | 0.00 | 0.00 | 0.00 | 29 | 1007.9 |
| 20260905195233 | 27 | 202 | 0.0 | 0.0 | 0.00 | 0.00 | 0.00 | 30 | 1008.0 |
| 20260905194226 | 27 | 238 | 6.4 | 20.9 | 0.00 | 0.00 | 0.00 | 30 | 1008.1 |
| 20260905193152 | 27 | 237 | 4.8 | 33.8 | 0.00 | 0.00 | 0.00 | 30 | 1008.1 |
| 20260905192129 | 27 | 189 | 1.6 | 16.1 | 0.00 | 0.00 | 0.00 | 31 | 1008.3 |
| 20260905191148 | 26 | 208 | 6.4 | 20.9 | 0.00 | 0.00 | 0.00 | 33 | 1008.5 |
| 20260905190149 | 26 | 0 | 6.4 | 20.9 | 0.00 | 0.00 | 0.00 | 33 | 1008.6 |
| 20260905183958 | 26 | 0 | 6.4 | 22.5 | 0.00 | 0.00 | 0.00 | 34 | 1009.0 |
| 20260905182958 | 26 | 0 | 4.8 | 0.0 | 0.00 | 0.00 | 0.00 | 34 | 1009.1 |
| 20260905182004 | 26 | 270 | 0.0 | 3.2 | 0.00 | 0.00 | 0.00 | 34 | 1009.2 |
| 20260905181015 | 25 | 255 | 4.8 | 19.3 | 0.00 | 0.00 | 0.00 | 34 | 1009.5 |
| 20260905175956 | 25 | 0 | 1.6 | 19.3 | 0.00 | 0.00 | 0.00 | 36 | 1009.7 |
| 20260905175020 | 25 | 243 | 6.4 | 20.9 | 0.00 | 0.00 | 0.00 | 35 | 1009.9 |
| 20260905172850 | 25 | 236 | 1.6 | 17.7 | 0.00 | 0.00 | 0.00 | 36 | 1009.9 |
| 20260905165545 | 25 | 256 | 4.8 | 11.3 | 0.00 | 0.00 | 0.00 | 36 | 1010.2 |
| 20260905164544 | 24 | 264 | 1.6 | 0.0 | 0.00 | 0.00 | 0.00 | 36 | 1010.2 |
| 20260905162424 | 23 | 271 | 0.0 | 3.2 | 0.00 | 0.00 | 0.00 | 37 | 1010.2 |
| 20260905161415 | 23 | 271 | 0.0 | 0.0 | 0.00 | 0.00 | 0.00 | 38 | 1010.1 |
| 20260905155313 | 23 | 261 | 0.0 | 12.9 | 0.00 | 0.00 | 0.00 | 38 | 1010.0 |
| 20260905154251 | 23 | 270 | 0.0 | 0.0 | 0.00 | 0.00 | 0.00 | 39 | 1010.0 |
| 20260905153257 | 22 | 273 | 0.0 | 12.9 | 0.00 | 0.00 | 0.00 | 39 | 1010.0 |
| 20260905151129 | 22 | 271 | 0.0 | 0.0 | 0.00 | 0.00 | 0.00 | 41 | 1010.0 |
| 20260905145027 | 21 | 271 | 0.0 | 1.6 | 0.00 | 0.00 | 0.00 | 45 | 1010.1 |
| 20260905144037 | 20 | 271 | 0.0 | 0.0 | 0.00 | 0.00 | 0.00 | 50 | 1010.0 |
| 20260905143047 | 19 | 271 | 0.0 | 0.0 | 0.00 | 0.00 | 0.00 | 50 | 1010.2 |
| 20260905142015 | 18 | 271 | 0.0 | 0.0 | 0.00 | 0.00 | 0.00 | 52 | 1010.2 |
| 20260905141023 | 17 | 271 | 0.0 | 0.0 | 0.00 | 0.00 | 0.00 | 57 | 1010.2 |
| 20260905134806 | 15 | 271 | 0.0 | 0.0 | 0.00 | 0.00 | 0.00 | 60 | 1009.9 |
| 20260905133805 | 14 | 271 | 0.0 | 0.0 | 0.00 | 0.00 | 0.00 | 62 | 1009.9 |
| 20260905132807 | 13 | 271 | 0.0 | 0.0 | 0.00 | 0.00 | 0.00 | 62 | 1009.7 |
| 20260905130635 | 12 | 252 | 0.0 | 1.6 | 0.00 | 0.00 | 0.00 | 67 | 1009.6 |
| 20260905124505 | 11 | 252 | 0.0 | 0.0 | 0.00 | 0.00 | 0.00 | 69 | 1009.3 |
| 20260905123513 | 11 | 252 | 0.0 | 0.0 | 0.00 | 0.00 | 0.00 | 69 | 1009.1 |
| 20260905121323 | 12 | 252 | 0.0 | 0.0 | 0.00 | 0.00 | 0.00 | 67 | 1009.1 |
| 20260905120344 | 12 | 252 | 0.0 | 1.6 | 0.00 | 0.00 | 0.00 | 68 | 1008.9 |
| 20260905114159 | 11 | 252 | 0.0 | 0.0 | 0.00 | 0.00 | 0.00 | 69 | 1008.9 |
| 20260905113205 | 12 | 252 | 0.0 | 0.0 | 0.00 | 0.00 | 0.00 | 69 | 1008.9 |
| 20260905112157 | 11 | 252 | 0.0 | 0.0 | 0.00 | 0.00 | 0.00 | 70 | 1008.9 |
| 20260905111134 | 11 | 252 | 0.0 | 0.0 | 0.00 | 0.00 | 0.00 | 69 | 1008.9 |
| 20260905110127 | 12 | 252 | 0.0 | 0.0 | 0.00 | 0.00 | 0.00 | 67 | 1008.7 |
| 20260905105146 | 11 | 252 | 0.0 | 0.0 | 0.00 | 0.00 | 0.00 | 68 | 1008.7 |
| 20260905103006 | 12 | 252 | 0.0 | 0.0 | 0.00 | 0.00 | 0.00 | 64 | 1008.4 |
| 20260905101934 | 13 | 252 | 0.0 | 0.0 | 0.00 | 0.00 | 0.00 | 63 | 1008.4 |
| 20260905100910 | 12 | 252 | 0.0 | 0.0 | 0.00 | 0.00 | 0.00 | 64 | 1008.3 |
| 20260905095837 | 12 | 252 | 0.0 | 0.0 | 0.00 | 0.00 | 0.00 | 64 | 1008.1 |
| 20260905094805 | 13 | 252 | 0.0 | 0.0 | 0.00 | 0.00 | 0.00 | 61 | 1008.0 |
| 20260905093817 | 14 | 252 | 0.0 | 0.0 | 0.00 | 0.00 | 0.00 | 61 | 1007.9 |
| 20260905092842 | 15 | 252 | 0.0 | 0.0 | 0.00 | 0.00 | 0.00 | 59 | 1007.7 |
| 20260905091854 | 15 | 252 | 0.0 | 1.6 | 0.00 | 0.00 | 0.00 | 60 | 1007.6 |
| 20260905090905 | 15 | 252 | 0.0 | 0.0 | 0.00 | 0.00 | 0.00 | 59 | 1007.6 |
| 20260905085839 | 15 | 252 | 0.0 | 0.0 | 0.00 | 0.00 | 0.00 | 59 | 1007.7 |
| 20260905084852 | 15 | 252 | 0.0 | 0.0 | 0.00 | 0.00 | 0.00 | 58 | 1007.7 |
| 20260905081702 | 16 | 252 | 0.0 | 0.0 | 0.00 | 0.00 | 0.00 | 58 | 1007.7 |
| 20260905080629 | 16 | 252 | 0.0 | 9.7 | 0.00 | 0.00 | 0.00 | 59 | 1007.7 |
| 20260905075620 | 16 | 238 | 0.0 | 0.0 | 0.00 | 0.00 | 0.00 | 58 | 1007.7 |
| 20260905074624 | 16 | 237 | 0.0 | 0.0 | 0.00 | 0.00 | 0.00 | 57 | 1007.7 |
| 20260905073634 | 17 | 237 | 0.0 | 0.0 | 0.00 | 0.00 | 0.00 | 56 | 1007.6 |
| 20260905071543 | 17 | 237 | 0.0 | 0.0 | 0.00 | 0.00 | 0.00 | 55 | 1007.7 |
| 20260905070553 | 18 | 237 | 0.0 | 0.0 | 0.00 | 0.00 | 0.00 | 55 | 1007.5 |
| 20260905065526 | 18 | 236 | 0.0 | 11.3 | 0.00 | 0.00 | 0.00 | 53 | 1007.5 |
| 20260905064511 | 19 | 226 | 0.0 | 0.0 | 0.00 | 0.00 | 0.00 | 49 | 1007.4 |
| 20260905063526 | 18 | 226 | 0.0 | 1.6 | 0.00 | 0.00 | 0.00 | 50 | 1007.4 |
| 20260905062534 | 18 | 209 | 0.0 | 0.0 | 0.00 | 0.00 | 0.00 | 55 | 1007.3 |
| 20260905061519 | 18 | 203 | 0.0 | 1.6 | 0.00 | 0.00 | 0.00 | 57 | 1007.6 |
| 20260905060543 | 17 | 203 | 0.0 | 0.0 | 0.00 | 0.00 | 0.00 | 58 | 1007.8 |
| 20260905054426 | 17 | 203 | 6.4 | 8.0 | 0.00 | 0.00 | 0.00 | 59 | 1008.0 |
| 20260905053446 | 16 | 237 | 0.0 | 16.1 | 0.00 | 0.00 | 0.00 | 57 | 1007.6 |
| 20260905052447 | 16 | 250 | 0.0 | 0.0 | 0.00 | 0.00 | 0.00 | 58 | 1007.4 |
| 20260905051442 | 16 | 250 | 0.0 | 0.0 | 0.00 | 0.00 | 0.00 | 57 | 1007.3 |
| 20260905050418 | 16 | 250 | 0.0 | 0.0 | 0.00 | 0.00 | 0.00 | 57 | 1007.3 |
| 20260905045424 | 16 | 250 | 0.0 | 0.0 | 0.00 | 0.00 | 0.00 | 56 | 1007.3 |
| 20260905044352 | 16 | 250 | 0.0 | 0.0 | 0.00 | 0.00 | 0.00 | 56 | 1007.4 |
| 20260905043408 | 16 | 250 | 0.0 | 0.0 | 0.00 | 0.00 | 0.00 | 56 | 1007.3 |
| 20260905042406 | 17 | 250 | 0.0 | 0.0 | 0.00 | 0.00 | 0.00 | 54 | 1007.3 |
| 20260905041420 | 17 | 250 | 0.0 | 0.0 | 0.00 | 0.00 | 0.00 | 54 | 1007.3 |
| 20260905040421 | 17 | 250 | 0.0 | 0.0 | 0.00 | 0.00 | 0.00 | 53 | 1007.4 |
| 20260905035405 | 17 | 250 | 0.0 | 0.0 | 0.00 | 0.00 | 0.00 | 53 | 1007.4 |
| 20260905034420 | 17 | 250 | 0.0 | 0.0 | 0.00 | 0.00 | 0.00 | 53 | 1007.4 |
| 20260905032331 | 18 | 250 | 0.0 | 0.0 | 0.00 | 0.00 | 0.00 | 51 | 1007.1 |
| 20260905031350 | 18 | 250 | 0.0 | 0.0 | 0.00 | 0.00 | 0.00 | 50 | 1007.0 |
| 20260905030316 | 18 | 250 | 0.0 | 0.0 | 0.00 | 0.00 | 0.00 | 49 | 1006.9 |
| 20260905025245 | 19 | 250 | 0.0 | 0.0 | 0.00 | 0.00 | 0.00 | 48 | 1006.6 |
| 20260905024228 | 20 | 250 | 0.0 | 0.0 | 0.00 | 0.00 | 0.00 | 46 | 1006.4 |
| 20260905023228 | 21 | 250 | 0.0 | 0.0 | 0.00 | 0.00 | 0.00 | 44 | 1006.2 |
| 20260905022217 | 21 | 250 | 0.0 | 0.0 | 0.00 | 0.00 | 0.00 | 43 | 1006.0 |
| 20260905021237 | 21 | 250 | 0.0 | 0.0 | 0.00 | 0.00 | 0.00 | 43 | 1005.9 |
| 20260905020242 | 22 | 250 | 0.0 | 0.0 | 0.00 | 0.00 | 0.00 | 42 | 1005.8 |
| 20260905015235 | 22 | 250 | 0.0 | 0.0 | 0.00 | 0.00 | 0.00 | 39 | 1005.8 |
| 20260905014233 | 23 | 250 | 0.0 | 0.0 | 0.00 | 0.00 | 0.00 | 39 | 1005.8 |
| 20260905013217 | 23 | 250 | 0.0 | 0.0 | 0.00 | 0.00 | 0.00 | 39 | 1005.8 |
| 20260905012218 | 24 | 250 | 0.0 | 0.0 | 0.00 | 0.00 | 0.00 | 37 | 1005.7 |
| 20260905011236 | 25 | 248 | 0.0 | 1.6 | 0.00 | 0.00 | 0.00 | 36 | 1005.8 |
| 20260905005121 | 26 | 248 | 0.0 | 3.2 | 0.00 | 0.00 | 0.00 | 34 | 1005.6 |
| 20260905004140 | 26 | 246 | 0.0 | 9.7 | 0.00 | 0.00 | 0.00 | 33 | 1005.5 |
| 20260905003155 | 27 | 224 | 0.0 | 0.0 | 0.00 | 0.00 | 0.00 | 32 | 1005.6 |